Location: Bord�res
(43.2000°N, 0.2167°W)
Time: 13:59:31
(UTC+00:00)

Lacrosse 4 Rocket - Pass Details

Date: 03 March 2021
Orbit: 537 x 620 km, 68.0° (Epoch: 20 April)

Event Time Altitude Azimuth Distance (km) Brightness Sun altitude
Rises 19:08:39 0° 177° (S) 2,805 4.9 -14.6°
Reaches altitude 10° 19:11:08 10° 165° (SSE) 1,924 3.9 -15.1°
Enters shadow 19:14:14 25° 120° (ESE) 1,219 2.5 -15.7°
